Tracking 18984 objects as of 24-Feb-2018
HD Live streaming from Space Station
objects crossing your sky now

COSMOS 592

Track COSMOS 592 now!
10-day predictions
COSMOS 592 is classified as:


NORAD ID: 6849
Int'l Code: 1973-069E
Perigee: 1,337.3 km
Apogee: 1,491.2 km
Inclination: 74.0 °
Period: 113.9 minutes
Semi major axis: 7785 km
RCS: 0.7024 m2 (medium)
Launch date: October 2, 1973
Source: Commonwealth of Independent States (former USSR) (CIS)
Launch site: PLESETSK MISSILE AND SPACE COMPLEX (PKMTR)
aabbcc
Your satellite tracking list
Your tracking list is empty




NASA's NSSDC Master Catalog

Two Line Element Set (TLE):
1 06849U 73069E   18054.50754394 -.00000019  00000-0 -98813-5 0  9993
2 06849  74.0022 161.0205 0098862 348.2946  11.5814 12.63853765 48343
Source of the keplerian elements: AFSPC